Location: Shandelee
(41.8790°N, 74.8713°W)
Time: 03:48:20
(UTC+00:00)

YAOGAN 1 - Pass Details

Date: 29 October 2020
Orbit: 618 x 620 km, 97.9° (Epoch: 23 November)

Event Time Altitude Azimuth Distance (km) Brightness Sun altitude
Rises 23:41:14 0° 167° (SSE) 2,882 5.9 -19.9°
Reaches altitude 10° 23:43:24 10° 168° (SSE) 1,981 5.0 -20.3°
Maximum altitude 23:47:43 86° 256° (WSW) 628 2.5 -21.2°
Drops below altitude 10° 23:52:04 10° 346° (NNW) 1,995 5.3 -22.0°
Sets 23:54:16 0° 347° (NNW) 2,906 6.2 -22.4°
